Time,TemperatureF,DewpointF,PressureIn,WindDirection,WindDirectionDegrees,WindSpeedMPH,WindSpeedGustMPH,Humidity,HourlyPrecipIn,Conditions,Clouds,dailyrainin,SolarRadiationWatts/m^2,SoftwareType,DateUTC
2014-04-20 00:00:00,52.5,30.9,-100.00,SSE,160,5.1,7.4,43,0.00,,,-99.99,1.0,HOBO +U30 +Weather +,2014-04-20 06:00:00,
2014-04-20 00:05:00,52.1,30.9,-100.00,South,173,5.1,6.7,44,0.00,,,-99.99,1.0,HOBO +U30 +Weather +,2014-04-20 06:05:00,
2014-04-20 00:10:00,51.9,30.9,-100.00,South,181,4.5,6.7,44,0.00,,,-99.99,1.0,HOBO +U30 +Weather +,2014-04-20 06:10:00,
2014-04-20 00:15:00,51.8,31.0,-100.00,South,183,4.5,6.3,44,0.00,,,-99.99,1.0,HOBO +U30 +Weather +,2014-04-20 06:15:00,
2014-04-20 00:20:00,51.5,30.9,-100.00,South,173,5.1,7.8,45,0.00,,,-99.99,1.0,HOBO +U30 +Weather +,2014-04-20 06:20:00,
2014-04-20 00:25:00,51.2,30.9,-100.00,South,175,5.1,7.4,45,0.00,,,-99.99,1.0,HOBO +U30 +Weather +,2014-04-20 06:25:00,
2014-04-20 00:30:00,50.9,30.9,-100.00,South,175,4.5,6.7,46,0.00,,,-99.99,1.0,HOBO +U30 +Weather +,2014-04-20 06:30:00,
2014-04-20 00:35:00,50.8,31.2,-100.00,South,188,4.5,7.8,46,0.00,,,-99.99,1.0,HOBO +U30 +Weather +,2014-04-20 06:35:00,
2014-04-20 00:40:00,50.4,31.1,-100.00,South,191,4.5,6.3,47,0.00,,,-99.99,1.0,HOBO +U30 +Weather +,2014-04-20 06:40:00,
2014-04-20 00:45:00,50.3,31.1,-100.00,South,187,4.5,7.4,47,0.00,,,-99.99,1.0,HOBO +U30 +Weather +,2014-04-20 06:45:00,
2014-04-20 00:50:00,50.1,31.2,-100.00,SSW,197,4.0,5.6,48,0.00,,,-99.99,1.0,HOBO +U30 +Weather +,2014-04-20 06:50:00,
2014-04-20 00:55:00,49.7,31.0,-100.00,SSW,199,4.5,6.3,48,0.00,,,-99.99,1.0,HOBO +U30 +Weather +,2014-04-20 06:55:00,
2014-04-20 01:00:00,50.1,31.0,-100.00,SSW,209,3.4,5.1,47,0.00,,,-99.99,1.0,HOBO +U30 +Weather +,2014-04-20 07:00:00,
2014-04-20 01:05:00,49.7,30.8,-100.00,SSW,211,2.2,4.0,47,0.00,,,-99.99,1.0,HOBO +U30 +Weather +,2014-04-20 07:05:00,
2014-04-20 01:10:00,49.3,30.7,-100.00,SSW,209,3.4,5.1,48,0.00,,,-99.99,1.0,HOBO +U30 +Weather +,2014-04-20 07:10:00,
2014-04-20 01:15:00,48.8,30.6,-100.00,SSW,208,3.4,5.6,49,0.00,,,-99.99,1.0,HOBO +U30 +Weather +,2014-04-20 07:15:00,
2014-04-20 01:20:00,48.5,30.7,-100.00,SW,216,4.0,5.6,49,0.00,,,-99.99,1.0,HOBO +U30 +Weather +,2014-04-20 07:20:00,
2014-04-20 01:25:00,48.1,30.7,-100.00,SSW,209,4.5,6.7,50,0.00,,,-99.99,1.0,HOBO +U30 +Weather +,2014-04-20 07:25:00,
2014-04-20 01:30:00,48.1,30.6,-100.00,SW,222,3.4,6.3,50,0.00,,,-99.99,1.0,HOBO +U30 +Weather +,2014-04-20 07:30:00,
2014-04-20 01:35:00,48.1,30.5,-100.00,SSW,212,3.4,5.6,50,0.00,,,-99.99,1.0,HOBO +U30 +Weather +,2014-04-20 07:35:00,
2014-04-20 01:40:00,48.0,30.5,-100.00,SSW,211,4.0,5.1,50,0.00,,,-99.99,1.0,HOBO +U30 +Weather +,2014-04-20 07:40:00,
2014-04-20 01:45:00,48.1,30.3,-100.00,SW,220,2.9,5.1,49,0.00,,,-99.99,1.0,HOBO +U30 +Weather +,2014-04-20 07:45:00,
2014-04-20 01:50:00,48.1,30.6,-100.00,SW,232,2.2,4.5,50,0.00,,,-99.99,1.0,HOBO +U30 +Weather +,2014-04-20 07:50:00,
2014-04-20 02:00:00,47.6,30.3,-100.00,SW,218,1.1,2.9,50,0.00,,,-99.99,1.0,HOBO +U30 +Weather +,2014-04-20 08:00:00,
2014-04-20 02:04:00,47.8,30.3,-100.00,SW,225,2.2,4.0,50,0.00,,,-99.99,1.0,HOBO +U30 +Weather +,2014-04-20 08:04:00,
2014-04-20 02:05:00,47.7,30.1,-100.00,SW,234,2.9,4.5,50,0.00,,,-99.99,1.0,HOBO +U30 +Weather +,2014-04-20 08:05:00,
2014-04-20 02:10:00,47.5,29.7,-100.00,SW,236,1.8,4.0,49,0.00,,,-99.99,1.0,HOBO +U30 +Weather +,2014-04-20 08:10:00,
2014-04-20 02:15:00,47.3,29.8,-100.00,SW,220,2.2,5.1,50,0.00,,,-99.99,1.0,HOBO +U30 +Weather +,2014-04-20 08:15:00,
2014-04-20 02:20:00,46.5,29.8,-100.00,SSW,199,2.9,4.5,51,0.00,,,-99.99,1.0,HOBO +U30 +Weather +,2014-04-20 08:20:00,
2014-04-20 02:25:00,46.1,29.8,-100.00,SSW,205,3.4,5.6,52,0.00,,,-99.99,1.0,HOBO +U30 +Weather +,2014-04-20 08:25:00,
2014-04-20 02:30:00,45.6,30.1,-100.00,SSW,198,4.0,5.6,54,0.00,,,-99.99,1.0,HOBO +U30 +Weather +,2014-04-20 08:30:00,
2014-04-20 02:35:00,45.4,30.3,-100.00,SSW,201,4.5,6.3,55,0.00,,,-99.99,1.0,HOBO +U30 +Weather +,2014-04-20 08:35:00,
2014-04-20 02:40:00,45.4,30.3,-100.00,SSW,204,4.5,6.7,55,0.00,,,-99.99,1.0,HOBO +U30 +Weather +,2014-04-20 08:40:00,
2014-04-20 02:45:00,45.4,30.7,-100.00,SSW,202,4.5,6.3,56,0.00,,,-99.99,1.0,HOBO +U30 +Weather +,2014-04-20 08:45:00,
2014-04-20 02:50:00,45.4,30.7,-100.00,SSW,195,5.1,6.3,56,0.00,,,-99.99,1.0,HOBO +U30 +Weather +,2014-04-20 08:50:00,
2014-04-20 02:55:00,45.0,30.9,-100.00,SSW,192,4.0,5.6,57,0.00,,,-99.99,1.0,HOBO +U30 +Weather +,2014-04-20 08:55:00,
2014-04-20 03:00:00,45.4,31.1,-100.00,SSW,206,4.0,5.6,57,0.00,,,-99.99,1.0,HOBO +U30 +Weather +,2014-04-20 09:00:00,
2014-04-20 03:05:00,45.4,31.0,-100.00,SSW,198,4.5,5.6,56,0.00,,,-99.99,1.0,HOBO +U30 +Weather +,2014-04-20 09:05:00,
2014-04-20 03:10:00,46.0,31.0,-100.00,SSW,212,4.0,7.4,55,0.00,,,-99.99,1.0,HOBO +U30 +Weather +,2014-04-20 09:10:00,
2014-04-20 03:15:00,45.9,31.0,-100.00,SSW,212,4.5,6.7,55,0.00,,,-99.99,1.0,HOBO +U30 +Weather +,2014-04-20 09:15:00,
2014-04-20 03:20:00,46.3,30.9,-100.00,SW,218,2.9,6.3,54,0.00,,,-99.99,1.0,HOBO +U30 +Weather +,2014-04-20 09:20:00,
2014-04-20 03:25:00,45.7,30.9,-100.00,SSW,209,3.4,5.6,55,0.00,,,-99.99,1.0,HOBO +U30 +Weather +,2014-04-20 09:25:00,
2014-04-20 03:30:00,44.7,30.8,-100.00,SSW,195,4.5,5.6,57,0.00,,,-99.99,1.0,HOBO +U30 +Weather +,2014-04-20 09:30:00,
2014-04-20 03:35:00,44.1,31.0,-100.00,South,191,5.6,6.7,59,0.00,,,-99.99,1.0,HOBO +U30 +Weather +,2014-04-20 09:35:00,
2014-04-20 03:40:00,43.8,31.0,-100.00,South,190,5.6,6.7,60,0.00,,,-99.99,1.0,HOBO +U30 +Weather +,2014-04-20 09:40:00,
2014-04-20 03:45:00,44.0,31.1,-100.00,SSW,197,5.1,6.7,60,0.00,,,-99.99,1.0,HOBO +U30 +Weather +,2014-04-20 09:45:00,
2014-04-20 03:50:00,44.6,31.1,-100.00,South,191,5.1,6.3,58,0.00,,,-99.99,1.0,HOBO +U30 +Weather +,2014-04-20 09:50:00,
2014-04-20 04:00:00,45.3,31.1,-100.00,South,185,5.6,6.7,57,0.00,,,-99.99,1.0,HOBO +U30 +Weather +,2014-04-20 10:00:00,
2014-04-20 04:02:00,44.7,31.2,-100.00,SSW,194,5.1,6.3,58,0.00,,,-99.99,1.0,HOBO +U30 +Weather +,2014-04-20 10:02:00,
2014-04-20 04:05:00,45.2,31.1,-100.00,South,190,5.6,7.4,57,0.00,,,-99.99,1.0,HOBO +U30 +Weather +,2014-04-20 10:05:00,
2014-04-20 04:10:00,44.9,31.2,-100.00,SSW,198,6.3,7.8,58,0.00,,,-99.99,1.0,HOBO +U30 +Weather +,2014-04-20 10:10:00,
2014-04-20 04:15:00,45.0,31.0,-100.00,SSW,204,5.6,7.4,57,0.00,,,-99.99,1.0,HOBO +U30 +Weather +,2014-04-20 10:15:00,
2014-04-20 04:20:00,45.5,30.8,-100.00,SSW,206,5.1,7.4,56,0.00,,,-99.99,1.0,HOBO +U30 +Weather +,2014-04-20 10:20:00,
2014-04-20 04:25:00,45.3,30.9,-100.00,SSW,208,5.1,7.4,56,0.00,,,-99.99,1.0,HOBO +U30 +Weather +,2014-04-20 10:25:00,
2014-04-20 04:30:00,44.8,30.9,-100.00,SSW,205,4.5,6.3,57,0.00,,,-99.99,1.0,HOBO +U30 +Weather +,2014-04-20 10:30:00,
2014-04-20 04:35:00,44.7,30.9,-100.00,SSW,192,5.6,7.4,58,0.00,,,-99.99,1.0,HOBO +U30 +Weather +,2014-04-20 10:35:00,
2014-04-20 04:40:00,44.3,30.9,-100.00,SSW,194,5.1,6.7,58,0.00,,,-99.99,1.0,HOBO +U30 +Weather +,2014-04-20 10:40:00,
2014-04-20 04:45:00,44.3,30.9,-100.00,SSW,197,5.1,6.7,58,0.00,,,-99.99,1.0,HOBO +U30 +Weather +,2014-04-20 10:45:00,
2014-04-20 04:50:00,44.3,30.8,-100.00,SSW,205,5.1,7.4,58,0.00,,,-99.99,1.0,HOBO +U30 +Weather +,2014-04-20 10:50:00,
2014-04-20 04:55:00,44.5,30.9,-100.00,SSW,202,4.5,6.3,58,0.00,,,-99.99,1.0,HOBO +U30 +Weather +,2014-04-20 10:55:00,
2014-04-20 05:00:00,45.2,30.9,-100.00,SSW,206,4.5,6.3,56,0.00,,,-99.99,1.0,HOBO +U30 +Weather +,2014-04-20 11:00:00,
2014-04-20 05:05:00,45.1,30.8,-100.00,SSW,211,3.4,6.3,56,0.00,,,-99.99,1.0,HOBO +U30 +Weather +,2014-04-20 11:05:00,
2014-04-20 05:10:00,45.3,30.8,-100.00,SSW,205,0.7,4.5,56,0.00,,,-99.99,1.0,HOBO +U30 +Weather +,2014-04-20 11:10:00,
2014-04-20 05:15:00,44.5,31.0,-100.00,North,351,0.7,4.0,58,0.00,,,-99.99,1.0,HOBO +U30 +Weather +,2014-04-20 11:15:00,
2014-04-20 05:20:00,44.6,30.9,-100.00,NNW,327,0.0,1.8,58,0.00,,,-99.99,1.0,HOBO +U30 +Weather +,2014-04-20 11:20:00,
2014-04-20 05:25:00,44.9,30.7,-100.00,NNW,327,0.0,1.8,57,0.00,,,-99.99,1.0,HOBO +U30 +Weather +,2014-04-20 11:25:00,
2014-04-20 05:30:00,45.8,30.8,-100.00,NW,324,4.0,13.0,55,0.00,,,-99.99,1.0,HOBO +U30 +Weather +,2014-04-20 11:30:00,
2014-04-20 05:35:00,46.9,30.5,-100.00,North,351,6.3,14.5,52,0.00,,,-99.99,1.0,HOBO +U30 +Weather +,2014-04-20 11:35:00,
2014-04-20 05:40:00,47.9,30.3,-100.00,ENE,72,1.8,3.4,50,0.00,,,-99.99,1.0,HOBO +U30 +Weather +,2014-04-20 11:40:00,
2014-04-20 05:45:00,49.1,30.0,-100.00,East,83,3.4,7.8,47,0.00,,,-99.99,1.0,HOBO +U30 +Weather +,2014-04-20 11:45:00,
2014-04-20 05:50:00,49.4,30.3,-100.00,ENE,74,6.3,9.6,47,0.00,,,-99.99,1.0,HOBO +U30 +Weather +,2014-04-20 11:50:00,
2014-04-20 05:55:00,49.2,30.3,-100.00,ENE,63,3.4,6.7,48,0.00,,,-99.99,1.0,HOBO +U30 +Weather +,2014-04-20 11:55:00,
2014-04-20 06:00:00,48.8,30.4,-100.00,NE,38,2.9,4.5,48,0.00,,,-99.99,1.0,HOBO +U30 +Weather +,2014-04-20 12:00:00,
2014-04-20 06:05:00,48.3,30.4,-100.00,NNE,13,2.2,4.5,49,0.00,,,-99.99,1.0,HOBO +U30 +Weather +,2014-04-20 12:05:00,
2014-04-20 06:10:00,48.1,30.5,-100.00,NNE,31,2.2,4.5,50,0.00,,,-99.99,1.0,HOBO +U30 +Weather +,2014-04-20 12:10:00,
2014-04-20 06:15:00,51.9,29.0,-100.00,NNE,22,2.9,10.1,41,0.00,,,-99.99,1.0,HOBO +U30 +Weather +,2014-04-20 12:15:00,
2014-04-20 06:20:00,51.9,28.4,-100.00,WNW,295,4.0,7.4,40,0.00,,,-99.99,1.0,HOBO +U30 +Weather +,2014-04-20 12:20:00,
2014-04-20 06:25:00,52.9,27.5,-100.00,West,265,5.6,8.9,37,0.00,,,-99.99,2.0,HOBO +U30 +Weather +,2014-04-20 12:25:00,
2014-04-20 06:30:00,53.6,27.6,-100.00,WNW,295,4.0,9.6,36,0.00,,,-99.99,6.0,HOBO +U30 +Weather +,2014-04-20 12:30:00,
2014-04-20 06:35:00,52.9,27.9,-100.00,West,279,3.4,6.3,37,0.00,,,-99.99,9.0,HOBO +U30 +Weather +,2014-04-20 12:35:00,
2014-04-20 06:40:00,52.2,27.8,-100.00,West,277,1.1,5.1,38,0.00,,,-99.99,12.0,HOBO +U30 +Weather +,2014-04-20 12:40:00,
2014-04-20 06:45:00,52.2,27.8,-100.00,WNW,292,1.1,4.0,38,0.00,,,-99.99,16.0,HOBO +U30 +Weather +,2014-04-20 12:45:00,
2014-04-20 06:50:00,49.7,29.6,-100.00,ENE,62,4.5,6.3,45,0.00,,,-99.99,21.0,HOBO +U30 +Weather +,2014-04-20 12:50:00,
2014-04-20 06:55:00,50.0,29.9,-100.00,NE,52,4.5,6.3,45,0.00,,,-99.99,26.0,HOBO +U30 +Weather +,2014-04-20 12:55:00,
2014-04-20 07:00:00,49.5,30.0,-100.00,NE,35,4.5,6.3,46,0.00,,,-99.99,29.0,HOBO +U30 +Weather +,2014-04-20 13:00:00,
2014-04-20 07:05:00,50.1,30.1,-100.00,NE,39,1.8,4.5,46,0.00,,,-99.99,34.0,HOBO +U30 +Weather +,2014-04-20 13:05:00,
2014-04-20 07:10:00,50.4,29.8,-100.00,NE,34,1.1,4.0,44,0.00,,,-99.99,39.0,HOBO +U30 +Weather +,2014-04-20 13:10:00,
2014-04-20 07:15:00,51.4,28.8,-100.00,NNE,15,5.1,10.1,41,0.00,,,-99.99,46.0,HOBO +U30 +Weather +,2014-04-20 13:15:00,
2014-04-20 07:20:00,52.5,28.9,-100.00,NNW,331,2.2,6.7,40,0.00,,,-99.99,51.0,HOBO +U30 +Weather +,2014-04-20 13:20:00,
2014-04-20 07:25:00,52.7,28.6,-100.00,WSW,247,0.7,5.1,39,0.00,,,-99.99,53.0,HOBO +U30 +Weather +,2014-04-20 13:25:00,
2014-04-20 07:30:00,52.9,28.5,-100.00,NW,305,0.7,2.9,38,0.00,,,-99.99,56.0,HOBO +U30 +Weather +,2014-04-20 13:30:00,
2014-04-20 07:35:00,52.9,28.5,-100.00,SSW,206,1.1,3.4,38,0.00,,,-99.99,59.0,HOBO +U30 +Weather +,2014-04-20 13:35:00,
2014-04-20 07:40:00,53.0,29.1,-100.00,WSW,257,3.4,6.7,39,0.00,,,-99.99,66.0,HOBO +U30 +Weather +,2014-04-20 13:40:00,
2014-04-20 07:45:00,53.0,29.4,-100.00,West,279,2.9,5.6,40,0.00,,,-99.99,67.0,HOBO +U30 +Weather +,2014-04-20 13:45:00,
2014-04-20 07:55:00,52.9,29.7,-100.00,West,275,3.4,7.8,40,0.00,,,-99.99,58.0,HOBO +U30 +Weather +,2014-04-20 13:55:00,
2014-04-20 07:58:00,53.0,29.5,-100.00,WSW,257,3.4,5.1,40,0.00,,,-99.99,63.0,HOBO +U30 +Weather +,2014-04-20 13:58:00,
2014-04-20 08:00:00,52.9,29.9,-100.00,West,278,5.1,8.9,41,0.00,,,-99.99,53.0,HOBO +U30 +Weather +,2014-04-20 14:00:00,
2014-04-20 08:05:00,52.7,30.1,-100.00,WNW,291,5.6,10.1,41,0.00,,,-99.99,56.0,HOBO +U30 +Weather +,2014-04-20 14:05:00,
2014-04-20 08:10:00,52.7,30.1,-100.00,WNW,289,4.5,8.9,41,0.00,,,-99.99,68.0,HOBO +U30 +Weather +,2014-04-20 14:10:00,
2014-04-20 08:15:00,53.0,30.2,-100.00,West,277,7.4,13.4,41,0.00,,,-99.99,92.0,HOBO +U30 +Weather +,2014-04-20 14:15:00,
2014-04-20 08:20:00,53.1,30.4,-100.00,West,279,7.4,14.5,41,0.00,,,-99.99,122.0,HOBO +U30 +Weather +,2014-04-20 14:20:00,
2014-04-20 08:25:00,53.1,30.5,-100.00,WNW,285,8.5,17.0,41,0.00,,,-99.99,138.0,HOBO +U30 +Weather +,2014-04-20 14:25:00,
2014-04-20 08:30:00,53.3,30.8,-100.00,WNW,289,10.1,17.4,41,0.00,,,-99.99,194.0,HOBO +U30 +Weather +,2014-04-20 14:30:00,
2014-04-20 08:35:00,53.6,30.6,-100.00,WNW,296,9.6,17.0,41,0.00,,,-99.99,181.0,HOBO +U30 +Weather +,2014-04-20 14:35:00,
2014-04-20 08:40:00,54.0,30.7,-100.00,WNW,293,10.7,19.7,40,0.00,,,-99.99,193.0,HOBO +U30 +Weather +,2014-04-20 14:40:00,
2014-04-20 08:45:00,54.7,31.2,-100.00,West,277,6.7,13.0,40,0.00,,,-99.99,251.0,HOBO +U30 +Weather +,2014-04-20 14:45:00,
2014-04-20 08:50:00,54.9,31.2,-100.00,SSW,213,3.4,9.6,40,0.00,,,-99.99,344.0,HOBO +U30 +Weather +,2014-04-20 14:50:00,
2014-04-20 08:55:00,54.7,30.6,-100.00,WSW,257,7.8,13.0,39,0.00,,,-99.99,281.0,HOBO +U30 +Weather +,2014-04-20 14:55:00,
2014-04-20 09:00:00,55.3,30.9,-100.00,West,265,7.4,14.5,39,0.00,,,-99.99,448.0,HOBO +U30 +Weather +,2014-04-20 15:00:00,
2014-04-20 09:05:00,55.7,30.8,-100.00,West,270,4.0,8.9,38,0.00,,,-99.99,506.0,HOBO +U30 +Weather +,2014-04-20 15:05:00,
2014-04-20 09:10:00,55.0,30.1,-100.00,WNW,295,9.6,15.9,38,0.00,,,-99.99,296.0,HOBO +U30 +Weather +,2014-04-20 15:10:00,
2014-04-20 09:15:00,55.1,30.1,-100.00,WNW,288,6.3,11.9,38,0.00,,,-99.99,156.0,HOBO +U30 +Weather +,2014-04-20 15:15:00,
2014-04-20 09:20:00,55.3,30.2,-100.00,WNW,298,6.7,11.2,38,0.00,,,-99.99,146.0,HOBO +U30 +Weather +,2014-04-20 15:20:00,
2014-04-20 09:25:00,55.0,29.9,-100.00,WNW,286,7.4,13.4,38,0.00,,,-99.99,157.0,HOBO +U30 +Weather +,2014-04-20 15:25:00,
2014-04-20 09:30:00,55.3,29.6,-100.00,NW,317,7.4,13.0,37,0.00,,,-99.99,173.0,HOBO +U30 +Weather +,2014-04-20 15:30:00,
2014-04-20 09:35:00,56.0,29.7,-100.00,NW,309,6.3,11.2,36,0.00,,,-99.99,341.0,HOBO +U30 +Weather +,2014-04-20 15:35:00,
2014-04-20 09:40:00,56.4,28.9,-100.00,WNW,291,6.7,13.4,34,0.00,,,-99.99,447.0,HOBO +U30 +Weather +,2014-04-20 15:40:00,
2014-04-20 09:45:00,57.0,28.9,-100.00,WNW,285,6.7,13.4,33,0.00,,,-99.99,536.0,HOBO +U30 +Weather +,2014-04-20 15:45:00,
2014-04-20 09:50:00,57.0,27.8,-100.00,WNW,303,7.8,17.4,32,0.00,,,-99.99,213.0,HOBO +U30 +Weather +,2014-04-20 15:50:00,
2014-04-20 09:55:00,57.5,27.7,-100.00,WNW,289,10.1,18.6,31,0.00,,,-99.99,631.0,HOBO +U30 +Weather +,2014-04-20 15:55:00,
2014-04-20 10:00:00,57.7,27.5,-100.00,WNW,293,10.7,17.4,31,0.00,,,-99.99,619.0,HOBO +U30 +Weather +,2014-04-20 16:00:00,
2014-04-20 10:05:00,57.5,26.6,-100.00,WNW,288,14.5,23.0,30,0.00,,,-99.99,623.0,HOBO +U30 +Weather +,2014-04-20 16:05:00,
2014-04-20 10:10:00,57.9,26.7,-100.00,West,275,8.9,17.0,30,0.00,,,-99.99,633.0,HOBO +U30 +Weather +,2014-04-20 16:10:00,
2014-04-20 10:15:00,58.4,26.9,-100.00,West,268,9.6,18.1,29,0.00,,,-99.99,379.0,HOBO +U30 +Weather +,2014-04-20 16:15:00,
2014-04-20 10:20:00,58.1,26.4,-100.00,WNW,284,11.2,17.4,29,0.00,,,-99.99,307.0,HOBO +U30 +Weather +,2014-04-20 16:20:00,
2014-04-20 10:25:00,58.2,26.2,-100.00,WNW,285,11.9,21.5,29,0.00,,,-99.99,761.0,HOBO +U30 +Weather +,2014-04-20 16:25:00,
2014-04-20 10:30:00,59.6,26.5,-100.00,WNW,284,9.6,14.5,28,0.00,,,-99.99,781.0,HOBO +U30 +Weather +,2014-04-20 16:30:00,
2014-04-20 10:35:00,59.1,26.4,-100.00,West,278,10.1,18.1,28,0.00,,,-99.99,261.0,HOBO +U30 +Weather +,2014-04-20 16:35:00,
2014-04-20 10:40:00,58.1,25.8,-100.00,WNW,289,10.1,18.1,28,0.00,,,-99.99,193.0,HOBO +U30 +Weather +,2014-04-20 16:40:00,
2014-04-20 10:54:00,59.2,26.0,-100.00,WNW,292,8.5,17.0,27,0.00,,,-99.99,174.0,HOBO +U30 +Weather +,2014-04-20 16:54:00,